EST,Max TemperatureF,Mean TemperatureF,Min TemperatureF,Max Dew PointF,MeanDew PointF,Min DewpointF,Max Humidity, Mean Humidity, Min Humidity, Max Sea Level PressureIn, Mean Sea Level PressureIn, Min Sea Level PressureIn, Max VisibilityMiles, Mean VisibilityMiles, Min VisibilityMiles, Max Wind SpeedMPH, Mean Wind SpeedMPH, Max Gust SpeedMPH,PrecipitationIn, CloudCover, Events, WindDirDegrees
2012-1-1,64,50,35,46,39,32,97,65,40,30.19,30.03,29.84,10,10,9,21,5,28,0.00,1,,201
2012-1-2,57,46,35,45,20,13,62,39,26,29.99,29.92,29.85,10,10,10,20,13,28,0.00,3,,295
2012-1-3,36,31,25,19,11,3,57,43,34,30.27,30.06,29.93,10,10,9,26,19,37,0.00,4,Snow,319
2012-1-4,37,29,21,13,9,4,55,42,29,30.38,30.23,30.05,10,10,10,15,11,22,0.00,5,,258
2012-1-5,51,40,30,26,20,12,67,47,35,30.06,30.02,29.98,10,10,10,12,7,,0.00,4,,257
2012-1-6,66,50,34,30,27,23,64,43,22,30.05,29.99,29.93,10,10,10,18,9,24,0.00,1,,219
2012-1-7,66,54,43,43,36,31,69,54,41,30.02,29.94,29.89,10,10,10,14,10,,0.00,5,,228
2012-1-8,54,44,35,43,31,27,87,57,39,30.31,30.23,30.05,10,10,10,17,7,23,0.00,5,Rain,18
2012-1-9,46,44,39,43,40,36,100,89,71,30.29,30.19,30.04,10,8,2,8,4,,0.16,8,Rain,43
2012-1-10,51,42,33,40,37,30,100,88,44,30.09,30.05,30.01,10,8,3,9,6,,0.00,5,,269
2012-1-11,54,42,30,54,47,31,100,98,90,30.04,29.83,29.53,10,8,1,18,7,28,0.63,8,Rain,121
2012-1-12,57,52,46,55,48,44,100,88,69,29.62,29.56,29.49,10,10,6,20,13,28,0.00,5,Rain,212
2012-1-13,53,44,34,49,24,15,86,53,35,29.99,29.77,29.48,10,10,10,31,19,44,0.00,4,,251
2012-1-14,37,31,25,21,18,16,75,58,43,30.17,30.10,29.99,10,10,10,15,10,21,0.00,3,,265
2012-1-15,34,28,21,24,20,16,85,69,50,30.58,30.38,30.15,10,10,10,18,9,29,0.00,3,,349
2012-1-16,42,30,18,32,22,16,92,67,45,30.63,30.51,30.32,10,10,10,14,3,17,0.00,4,Rain,189
2012-1-17,63,52,42,52,45,34,93,71,56,30.30,30.04,29.84,10,10,10,38,18,46,0.02,6,Rain,220
2012-1-18,55,44,34,54,38,17,100,76,45,30.14,29.95,29.78,10,10,4,29,16,34,0.07,6,Rain,334
2012-1-19,42,34,25,30,25,17,92,66,49,30.22,30.13,30.02,10,10,10,13,8,16,0.00,5,,58
2012-1-20,43,38,34,40,32,29,100,75,58,30.27,30.18,30.06,10,10,9,16,10,,0.06,7,Rain,88
2012-1-21,60,48,36,58,45,29,100,91,70,30.21,29.99,29.86,10,7,2,21,11,29,0.49,8,Rain,245
2012-1-22,45,40,36,39,34,30,82,78,71,30.36,30.31,30.23,8,5,2,15,11,23,0.03,8,Rain,1
2012-1-23,62,51,43,59,47,37,100,87,71,30.29,30.15,30.01,10,6,0,13,7,23,0.01,8,Fog-Rain,249
2012-1-24,63,54,45,59,53,45,100,86,61,30.19,30.08,30.00,10,9,2,12,9,,0.01,6,Rain,251
2012-1-25,49,44,39,45,38,34,100,80,58,30.38,30.28,30.19,10,7,0,14,4,,0.00,3,Fog,67
2012-1-26,64,50,37,58,46,34,93,82,67,30.21,30.06,29.84,10,8,2,14,3,20,0.00,5,Fog,175
2012-1-27,68,57,46,63,54,36,90,75,43,30.00,29.69,29.55,10,9,1,25,15,46,0.41,6,Rain,230
2012-1-28,60,48,36,39,35,32,86,61,42,30.17,30.07,30.00,10,10,10,14,6,22,0.00,0,,240
2012-1-29,48,44,39,32,23,14,58,45,26,30.34,30.26,30.18,10,10,10,12,9,,0.00,1,,12
2012-1-30,51,42,34,35,24,14,74,50,23,30.42,30.35,30.21,10,10,10,12,7,,0.00,1,,239
2012-1-31,66,55,44,33,28,24,65,39,22,30.36,30.29,30.22,10,10,10,20,13,29,0.00,1,,218